QPF
0.00 0.00 0.00 0.00 0.00 0.00 0.00 0.00 0.00 0.00 0.00 0.00 0.00 0.00 0.00 0.00 0.00 0.00 0.00 0.00 0.00 0.00 0.00 0.00 0.00 0.00 0.00 0.00 0.00 0.00 0.00 0.00 0.00 0.00 0.00 0.00 0.00 0.00 0.00 0.00 0.00 0.00 0.01 0.01
0.00 0.00 0.00 0.00 0.00 0.00 0.00 0.00 0.00 0.00 0.00 0.00 0.00 0.00 0.00 0.00 0.00 0.00 0.00 0.00 0.00 0.00 0.00 0.00 0.00 0.00 0.00 0.00 0.00 0.00 0.00 0.00 0.00 0.00 0.00 0.00 0.00 0.00 0.00 0.00 0.00 0.00 0.00 0.00
0.00 0.00 0.00 0.00 0.00 0.00 0.00 0.00 0.00 0.00 0.00 0.00 0.00 0.00 0.00 0.00 0.00 0.00 0.00 0.00 0.00 0.00 0.00 0.00 0.00 0.00 0.00 0.00 0.00 0.00 0.00 0.00 0.00 0.00 0.00 0.00 0.00 0.00 0.00 0.00 0.00 0.00 0.00 0.00
0.00 0.00 0.00 0.00 0.00 0.00 0.00 0.00 0.00 0.00 0.00 0.00 0.00 0.00 0.00 0.00 0.00 0.00 0.00 0.00 0.00 0.00 0.00 0.00 0.00 0.00 0.00 0.00 0.00 0.00 0.00 0.00 0.00 0.00 0.00 0.00 0.00 0.00 0.00 0.00 0.00 0.00 0.00 0.00
0.00 0.00 0.00 0.00 0.00 0.00 0.00 0.00 0.00 0.00 0.00 0.00 0.00 0.00 0.00 0.00 0.00 0.00 0.00 0.00 0.00 0.00 0.00 0.00 0.00 0.00 0.00 0.00 0.00 0.00 0.00 0.00 0.00 0.00 0.00 0.00 0.00 0.00 0.00 0.00 0.00 0.00 0.00 0.00
0.00 0.00 0.00 0.00 0.00 0.00 0.00 0.00 0.00 0.00 0.00 0.00 0.00 0.00 0.00 0.00 0.00 0.00 0.00 0.00 0.00 0.00 0.00 0.00 0.00 0.00 0.00 0.00 0.00 0.00 0.00 0.00 0.00 0.00 0.00 0.00 0.00 0.00 0.00 0.00 0.00 0.00 0.00 0.00
0.00 0.00 0.00 0.00 0.00 0.00 0.00 0.00 0.00 0.00 0.00 0.00 0.00 0.00 0.00 0.00 0.00 0.00 0.00 0.00 0.00 0.00 0.00 0.00 0.00 0.00 0.00 0.00 0.00 0.00 0.00 0.00 0.00 0.00 0.00 0.00 0.00 0.00 0.00 0.00 0.00 0.00 0.00 0.00
0.00 0.00 0.00 0.00 0.00 0.00 0.00 0.00 0.00 0.00 0.00 0.00 0.00 0.00 0.00 0.00 0.00 0.00 0.00 0.00 0.00 0.00 0.00 0.00 0.00 0.00 0.00 0.00 0.00 0.00 0.00 0.00 0.00 0.00 0.00 0.00 0.00 0.00 0.00 0.00 0.00 0.00 0.00 0.00
0.00 0.00 0.00 0.00 0.00 0.00 0.00 0.00 0.00 0.00 0.00 0.00 0.00 0.00 0.00 0.00 0.00 0.00 0.00 0.00 0.00 0.00 0.00 0.00 0.00 0.00 0.00 0.00 0.00 0.00 0.00 0.00 0.00 0.00 0.00 0.00 0.00 0.00 0.00 0.00 0.00 0.00 0.00 0.00
0.00 0.00 0.00 0.00 0.00 0.00 0.00 0.00 0.00 0.00 0.00 0.00 0.00 0.00 0.00 0.00 0.00 0.00 0.00 0.00 0.00 0.00 0.00 0.00 0.00 0.00 0.00 0.00 0.00 0.00 0.00 0.00 0.00 0.00 0.00 0.00 0.00 0.00 0.00 0.00 0.00 0.00 0.00 0.00
0.00 0.00 0.00 0.00 0.00 0.00 0.00 0.00 0.00 0.00 0.00 0.00 0.00 0.00 0.00 0.00 0.00 0.00 0.00 0.00 0.00 0.00 0.00 0.00 0.00 0.00 0.00 0.00 0.00 0.00 0.00 0.00 0.00 0.00 0.00 0.00 0.00 0.00 0.00 0.00 0.00 0.00 0.00 0.00
0.00 0.00 0.00 0.00 0.00 0.00 0.00 0.00 0.00 0.00 0.00 0.00 0.00 0.00 0.00 0.00 0.00 0.00 0.00 0.00 0.00 0.00 0.00 0.00 0.00 0.00 0.00 0.00 0.00 0.00 0.00 0.00 0.00 0.00 0.00 0.00 0.00 0.00 0.00 0.00 0.00 0.00 0.00 0.00
0.00 0.00 0.00 0.00 0.00 0.00 0.00 0.00 0.00 0.00 0.00 0.00 0.00 0.00 0.00 0.00 0.00 0.00 0.00 0.00 0.00 0.00 0.00 0.00 0.00 0.00 0.00 0.00 0.00 0.00 0.00 0.00 0.00 0.00 0.00 0.00 0.00 0.00 0.00 0.00 0.00 0.00 0.00 0.00
0.00 0.00 0.00 0.00 0.00 0.00 0.00 0.00 0.00 0.00 0.00 0.00 0.00 0.00 0.00 0.00 0.00 0.00 0.00 0.00 0.00 0.00 0.00 0.00 0.00 0.00 0.00 0.00 0.00 0.00 0.00 0.00 0.00 0.00 0.00 0.00 0.00 0.00 0.00 0.00 0.00 0.00 0.00 0.00
0.00 0.00 0.00 0.00 0.00 0.00 0.00 0.00 0.00 0.00 0.00 0.00 0.00 0.00 0.00 0.00 0.00 0.00 0.00 0.00 0.00 0.00 0.00 0.00 0.00 0.00 0.00 0.00 0.00 0.00 0.00 0.00 0.00 0.00 0.00 0.00 0.00 0.00 0.00 0.00 0.00 0.00 0.00 0.00
0.00 0.00 0.00 0.00 0.00 0.00 0.00 0.00 0.00 0.00 0.00 0.00 0.00 0.00 0.00 0.00 0.00 0.00 0.00 0.00 0.00 0.00 0.00 0.00 0.00 0.00 0.00 0.00 0.00 0.00 0.00 0.00 0.00 0.00 0.00 0.00 0.00 0.00 0.00 0.00 0.00 0.00 0.00 0.00
0.00 0.00 0.00 0.00 0.00 0.00 0.00 0.00 0.00 0.00 0.00 0.00 0.00 0.00 0.00 0.00 0.00 0.00 0.00 0.00 0.00 0.00 0.00 0.00 0.00 0.00 0.00 0.00 0.00 0.00 0.00 0.00 0.00 0.00 0.00 0.00 0.00 0.00 0.00 0.00 0.00 0.00 0.00 0.00
0.00 0.00 0.00 0.00 0.00 0.00 0.00 0.00 0.00 0.00 0.00 0.00 0.00 0.00 0.00 0.00 0.00 0.00 0.00 0.00 0.00 0.00 0.00 0.00 0.00 0.00 0.00 0.00 0.00 0.00 0.00 0.00 0.00 0.00 0.00 0.00 0.00 0.00 0.00 0.00 0.00 0.00 0.00 0.00
0.00 0.00 0.00 0.00 0.00 0.00 0.00 0.00 0.00 0.00 0.00 0.00 0.00 0.00 0.00 0.00 0.00 0.00 0.00 0.00 0.00 0.00 0.00 0.00 0.00 0.00 0.00 0.00 0.00 0.00 0.00 0.00 0.00 0.00 0.00 0.00 0.00 0.00 0.00 0.00 0.00 0.00 0.00 0.00
0.00 0.00 0.00 0.00 0.00 0.00 0.00 0.00 0.00 0.00 0.00 0.00 0.00 0.00 0.00 0.00 0.00 0.00 0.00 0.00 0.00 0.00 0.00 0.00 0.00 0.00 0.00 0.00 0.00 0.00 0.00 0.00 0.00 0.00 0.00 0.00 0.00 0.00 0.00 0.00 0.00 0.00 0.00 0.00
0.00 0.00 0.00 0.00 0.00 0.00 0.00 0.00 0.00 0.00 0.00 0.00 0.00 0.00 0.00 0.00 0.00 0.00 0.00 0.00 0.00 0.00 0.00 0.00 0.00 0.00 0.00 0.00 0.00 0.00 0.00 0.00 0.00 0.00 0.00 0.00 0.00 0.00 0.00 0.00 0.00 0.00 0.00 0.00
0.00 0.00 0.00 0.00 0.00 0.00 0.00 0.00 0.00 0.00 0.00 0.00 0.00 0.00 0.00 0.00 0.00 0.00 0.00 0.00 0.00 0.00 0.00 0.00 0.00 0.00 0.00 0.00 0.00 0.00 0.00 0.00 0.00 0.00 0.00 0.00 0.00 0.00 0.00 0.00 0.00 0.00 0.00 0.00
0.00 0.00 0.00 0.00 0.00 0.00 0.00 0.00 0.00 0.00 0.00 0.00 0.00 0.00 0.00 0.00 0.00 0.00 0.00 0.00 0.00 0.00 0.00 0.00 0.00 0.00 0.00 0.00 0.00 0.00 0.00 0.00 0.00 0.00 0.00 0.00 0.00 0.00 0.00 0.00 0.00 0.00 0.00 0.00
0.00 0.00 0.00 0.00 0.00 0.00 0.00 0.00 0.00 0.00 0.00 0.00 0.00 0.00 0.00 0.00 0.00 0.00 0.00 0.00 0.00 0.00 0.00 0.00 0.00 0.00 0.00 0.00 0.00 0.00 0.00 0.00 0.00 0.00 0.00 0.00 0.00 0.00 0.00 0.00 0.00 0.00 0.00 0.00
0.00 0.00 0.00 0.00 0.00 0.00 0.00 0.00 0.00 0.00 0.00 0.00 0.00 0.00 0.00 0.00 0.00 0.00 0.00 0.00 0.00 0.00 0.00 0.00 0.00 0.00 0.00 0.00 0.00 0.00 0.00 0.00 0.00 0.00 0.00 0.00 0.00 0.00 0.00 0.00 0.00 0.00 0.00 0.00
0.00 0.00 0.00 0.00 0.00 0.00 0.00 0.00 0.00 0.00 0.00 0.00 0.00 0.00 0.00 0.00 0.00 0.00 0.00 0.00 0.00 0.00 0.00 0.00 0.00 0.00 0.00 0.00 0.00 0.00 0.00 0.00 0.00 0.00 0.00 0.00 0.00 0.00 0.00 0.00 0.00 0.00 0.00 0.00
0.00 0.00 0.00 0.00 0.00 0.00 0.00 0.00 0.00 0.00 0.00 0.00 0.00 0.00 0.00 0.00 0.00 0.00 0.00 0.00 0.00 0.00 0.00 0.00 0.00 0.00 0.00 0.00 0.00 0.00 0.00 0.00 0.00 0.00 0.00 0.00 0.00 0.00 0.00 0.00 0.00 0.00 0.00 0.00
MSLP
1014.52 1014.88 1015.23 1015.55 1015.79 1015.90 1015.87 1015.67 1015.31 1014.81 1014.22 1013.60 1013.01 1012.51 1012.14 1011.90 1011.80 1011.81 1011.89 1012.01 1012.12 1012.21 1012.26 1012.29 1012.31 1012.34 1012.39 1012.48 1012.62 1012.78 1012.95 1013.12 1013.26 1013.36 1013.41 1013.42 1013.39 1013.32 1013.23 1013.12 1012.99 1012.84 1012.65 1012.43
1014.47 1014.73 1014.92 1015.03 1015.05 1014.97 1014.77 1014.46 1014.07 1013.63 1013.16 1012.72 1012.33 1012.03 1011.82 1011.71 1011.66 1011.67 1011.69 1011.71 1011.72 1011.70 1011.67 1011.65 1011.65 1011.70 1011.80 1011.96 1012.16 1012.39 1012.62 1012.83 1013.01 1013.14 1013.22 1013.25 1013.24 1013.19 1013.12 1013.03 1012.91 1012.75 1012.56 1012.32
1014.42 1014.54 1014.55 1014.46 1014.28 1014.00 1013.66 1013.28 1012.88 1012.50 1012.15 1011.88 1011.68 1011.55 1011.49 1011.48 1011.48 1011.48 1011.44 1011.38 1011.29 1011.19 1011.10 1011.04 1011.04 1011.11 1011.25 1011.47 1011.74 1012.02 1012.31 1012.56 1012.76 1012.91 1013.00 1013.04 1013.04 1013.00 1012.95 1012.86 1012.75 1012.60 1012.41 1012.17
1014.36 1014.30 1014.12 1013.83 1013.45 1013.02 1012.56 1012.12 1011.73 1011.40 1011.18 1011.05 1011.01 1011.04 1011.10 1011.17 1011.22 1011.22 1011.16 1011.04 1010.89 1010.74 1010.61 1010.53 1010.54 1010.64 1010.84 1011.10 1011.41 1011.73 1012.04 1012.30 1012.50 1012.64 1012.72 1012.75 1012.75 1012.72 1012.67 1012.59 1012.49 1012.35 1012.16 1011.93
1014.22 1013.97 1013.60 1013.13 1012.58 1012.02 1011.47 1010.99 1010.60 1010.34 1010.21 1010.20 1010.30 1010.46 1010.63 1010.78 1010.88 1010.90 1010.84 1010.72 1010.56 1010.39 1010.26 1010.20 1010.24 1010.37 1010.59 1010.88 1011.20 1011.52 1011.81 1012.05 1012.22 1012.33 1012.38 1012.38 1012.36 1012.32 1012.27 1012.20 1012.10 1011.97 1011.80 1011.59
1013.97 1013.53 1012.97 1012.34 1011.66 1010.99 1010.38 1009.88 1009.52 1009.31 1009.27 1009.36 1009.56 1009.82 1010.09 1010.32 1010.48 1010.56 1010.54 1010.45 1010.32 1010.19 1010.10 1010.07 1010.14 1010.30 1010.53 1010.82 1011.12 1011.40 1011.64 1011.82 1011.93 1011.98 1011.97 1011.93 1011.88 1011.82 1011.76 1011.69 1011.60 1011.49 1011.33 1011.13
1013.52 1012.91 1012.21 1011.45 1010.68 1009.96 1009.32 1008.83 1008.50 1008.35 1008.37 1008.55 1008.84 1009.18 1009.53 1009.84 1010.08 1010.23 1010.28 1010.26 1010.20 1010.14 1010.11 1010.14 1010.24 1010.41 1010.64 1010.89 1011.14 1011.36 1011.52 1011.61 1011.64 1011.60 1011.54 1011.45 1011.36 1011.28 1011.20 1011.13 1011.04 1010.93 1010.78 1010.60
1012.82 1012.09 1011.29 1010.47 1009.67 1008.94 1008.32 1007.87 1007.59 1007.50 1007.58 1007.83 1008.18 1008.60 1009.02 1009.40 1009.72 1009.96 1010.10 1010.18 1010.22 1010.24 1010.29 1010.37 1010.50 1010.67 1010.87 1011.07 1011.24 1011.36 1011.43 1011.43 1011.36 1011.26 1011.13 1010.99 1010.87 1010.76 1010.67 1010.58 1010.49 1010.37 1010.22 1010.04
1011.87 1011.07 1010.24 1009.42 1008.64 1007.96 1007.41 1007.02 1006.81 1006.79 1006.95 1007.24 1007.65 1008.12 1008.61 1009.06 1009.46 1009.78 1010.03 1010.21 1010.34 1010.46 1010.58 1010.70 1010.85 1011.01 1011.16 1011.30 1011.39 1011.42 1011.39 1011.30 1011.16 1010.99 1010.80 1010.63 1010.48 1010.35 1010.24 1010.14 1010.03 1009.90 1009.73 1009.53
1010.68 1009.88 1009.09 1008.32 1007.63 1007.05 1006.60 1006.32 1006.20 1006.26 1006.48 1006.84 1007.29 1007.80 1008.33 1008.84 1009.31 1009.71 1010.05 1010.32 1010.55 1010.75 1010.93 1011.09 1011.24 1011.38 1011.49 1011.55 1011.56 1011.51 1011.40 1011.24 1011.05 1010.84 1010.63 1010.44 1010.28 1010.14 1010.01 1009.89 1009.75 1009.59 1009.39 1009.15
1009.32 1008.58 1007.87 1007.21 1006.64 1006.20 1005.89 1005.73 1005.73 1005.88 1006.17 1006.58 1007.08 1007.62 1008.19 1008.75 1009.27 1009.74 1010.15 1010.51 1010.81 1011.07 1011.29 1011.48 1011.62 1011.73 1011.80 1011.80 1011.75 1011.64 1011.48 1011.29 1011.08 1010.86 1010.66 1010.47 1010.31 1010.17 1010.03 1009.89 1009.72 1009.51 1009.26 1008.98
1007.89 1007.23 1006.62 1006.10 1005.69 1005.40 1005.24 1005.22 1005.34 1005.59 1005.96 1006.43 1006.96 1007.55 1008.15 1008.74 1009.30 1009.83 1010.30 1010.71 1011.07 1011.38 1011.63 1011.82 1011.97 1012.05 1012.08 1012.05 1011.96 1011.82 1011.65 1011.46 1011.26 1011.07 1010.89 1010.73 1010.59 1010.46 1010.32 1010.15 1009.94 1009.69 1009.40 1009.08
1006.49 1005.91 1005.41 1005.02 1004.75 1004.61 1004.60 1004.72 1004.96 1005.32 1005.77 1006.30 1006.88 1007.50 1008.14 1008.76 1009.37 1009.93 1010.45 1010.91 1011.31 1011.65 1011.92 1012.12 1012.26 1012.33 1012.34 1012.30 1012.20 1012.06 1011.91 1011.74 1011.58 1011.43 1011.30 1011.19 1011.08 1010.96 1010.82 1010.64 1010.40 1010.12 1009.79 1009.43
1005.21 1004.69 1004.28 1003.99 1003.83 1003.82 1003.94 1004.18 1004.53 1004.99 1005.52 1006.12 1006.76 1007.43 1008.10 1008.77 1009.41 1010.02 1010.57 1011.07 1011.51 1011.87 1012.16 1012.38 1012.52 1012.59 1012.60 1012.55 1012.47 1012.36 1012.23 1012.11 1012.00 1011.91 1011.84 1011.77 1011.70 1011.60 1011.47 1011.28 1011.03 1010.73 1010.38 1010.00
1004.14 1003.64 1003.26 1003.03 1002.95 1003.02 1003.24 1003.58 1004.03 1004.57 1005.18 1005.85 1006.55 1007.28 1008.00 1008.72 1009.41 1010.06 1010.65 1011.19 1011.66 1012.05 1012.36 1012.59 1012.75 1012.83 1012.85 1012.82 1012.76 1012.69 1012.61 1012.54 1012.48 1012.44 1012.42 1012.40 1012.36 1012.28 1012.16 1011.98 1011.74 1011.43 1011.08 1010.71
1003.32 1002.80 1002.42 1002.20 1002.15 1002.26 1002.53 1002.94 1003.46 1004.07 1004.76 1005.50 1006.27 1007.06 1007.84 1008.61 1009.35 1010.05 1010.69 1011.27 1011.77 1012.19 1012.53 1012.78 1012.96 1013.06 1013.10 1013.10 1013.07 1013.03 1012.99 1012.96 1012.95 1012.95 1012.96 1012.97 1012.96 1012.91 1012.80 1012.64 1012.41 1012.13 1011.81 1011.46
1002.81 1002.23 1001.80 1001.56 1001.49 1001.61 1001.89 1002.33 1002.89 1003.56 1004.31 1005.11 1005.95 1006.80 1007.65 1008.47 1009.26 1010.01 1010.70 1011.31 1011.85 1012.30 1012.66 1012.94 1013.14 1013.27 1013.33 1013.36 1013.36 1013.34 1013.33 1013.33 1013.34 1013.37 1013.40 1013.43 1013.43 1013.40 1013.32 1013.18 1012.98 1012.74 1012.46 1012.16
1002.61 1001.96 1001.47 1001.16 1001.05 1001.14 1001.41 1001.85 1002.44 1003.14 1003.93 1004.78 1005.67 1006.57 1007.47 1008.34 1009.18 1009.96 1010.69 1011.33 1011.90 1012.38 1012.76 1013.07 1013.29 1013.44 1013.52 1013.57 1013.59 1013.59 1013.59 1013.60 1013.63 1013.66 1013.70 1013.72 1013.73 1013.71 1013.65 1013.54 1013.38 1013.19 1012.96 1012.72
1002.75 1002.03 1001.46 1001.09 1000.92 1000.96 1001.19 1001.61 1002.19 1002.90 1003.70 1004.58 1005.50 1006.43 1007.36 1008.27 1009.13 1009.94 1010.68 1011.34 1011.92 1012.41 1012.82 1013.13 1013.37 1013.54 1013.64 1013.70 1013.73 1013.74 1013.75 1013.76 1013.78 1013.80 1013.83 1013.85 1013.86 1013.84 1013.80 1013.72 1013.60 1013.45 1013.28 1013.09
1003.17 1002.40 1001.78 1001.34 1001.11 1001.09 1001.28 1001.67 1002.21 1002.90 1003.70 1004.57 1005.49 1006.43 1007.36 1008.27 1009.13 1009.93 1010.67 1011.33 1011.91 1012.40 1012.80 1013.13 1013.37 1013.55 1013.67 1013.73 1013.77 1013.79 1013.79 1013.79 1013.80 1013.81 1013.83 1013.84 1013.84 1013.83 1013.80 1013.74 1013.66 1013.55 1013.42 1013.28
1003.82 1003.03 1002.37 1001.89 1001.61 1001.54 1001.68 1002.01 1002.51 1003.16 1003.92 1004.76 1005.65 1006.56 1007.46 1008.34 1009.17 1009.95 1010.65 1011.29 1011.84 1012.32 1012.71 1013.03 1013.27 1013.45 1013.58 1013.66 1013.70 1013.72 1013.72 1013.72 1013.72 1013.73 1013.73 1013.74 1013.74 1013.73 1013.71 1013.67 1013.61 1013.53 1013.43 1013.31
1004.61 1003.83 1003.17 1002.66 1002.35 1002.23 1002.32 1002.59 1003.03 1003.62 1004.32 1005.10 1005.93 1006.78 1007.63 1008.45 1009.23 1009.96 1010.62 1011.21 1011.72 1012.17 1012.54 1012.84 1013.08 1013.26 1013.39 1013.48 1013.53 1013.56 1013.58 1013.58 1013.59 1013.59 1013.60 1013.61 1013.61 1013.61 1013.60 1013.57 1013.52 1013.45 1013.36 1013.24
1005.43 1004.68 1004.03 1003.53 1003.19 1003.04 1003.08 1003.29 1003.67 1004.18 1004.81 1005.51 1006.27 1007.05 1007.82 1008.58 1009.29 1009.95 1010.54 1011.08 1011.55 1011.95 1012.29 1012.57 1012.80 1012.98 1013.12 1013.22 1013.29 1013.34 1013.37 1013.40 1013.43 1013.45 1013.47 1013.49 1013.50 1013.51 1013.50 1013.48 1013.44 1013.36 1013.26 1013.12
1006.15 1005.46 1004.85 1004.36 1004.01 1003.84 1003.83 1003.99 1004.29 1004.73 1005.28 1005.91 1006.58 1007.28 1007.98 1008.66 1009.30 1009.89 1010.43 1010.91 1011.33 1011.69 1012.00 1012.26 1012.47 1012.65 1012.79 1012.91 1013.00 1013.08 1013.15 1013.21 1013.26 1013.31 1013.36 1013.40 1013.44 1013.46 1013.46 1013.43 1013.38 1013.29 1013.17 1013.00
1006.69 1006.06 1005.49 1005.02 1004.68 1004.49 1004.44 1004.55 1004.80 1005.17 1005.64 1006.20 1006.80 1007.43 1008.06 1008.67 1009.25 1009.79 1010.28 1010.71 1011.08 1011.41 1011.69 1011.93 1012.13 1012.30 1012.45 1012.58 1012.70 1012.80 1012.91 1013.01 1013.11 1013.20 1013.28 1013.35 1013.41 1013.44 1013.45 1013.42 1013.36 1013.25 1013.09 1012.89
1006.96 1006.39 1005.87 1005.44 1005.11 1004.90 1004.83 1004.90 1005.10 1005.42 1005.83 1006.33 1006.88 1007.46 1008.04 1008.61 1009.15 1009.65 1010.10 1010.50 1010.84 1011.14 1011.39 1011.61 1011.80 1011.96 1012.11 1012.26 1012.40 1012.53 1012.67 1012.81 1012.96 1013.09 1013.21 1013.31 1013.39 1013.44 1013.45 1013.41 1013.33 1013.19 1013.00 1012.76
1006.95 1006.44 1005.97 1005.56 1005.25 1005.04 1004.96 1005.01 1005.17 1005.46 1005.84 1006.30 1006.81 1007.37 1007.93 1008.48 1009.00 1009.48 1009.92 1010.30 1010.62 1010.90 1011.13 1011.33 1011.50 1011.66 1011.80 1011.95 1012.11 1012.27 1012.44 1012.62 1012.79 1012.97 1013.12 1013.26 1013.36 1013.41 1013.42 1013.37 1013.26 1013.09 1012.86 1012.58
Thickness
5716 5724 5722 5723 5724 5722 5714 5706 5699 5710 5718 5728 5733 5736 5738 5737 5735 5734 5731 5729 5726 5721 5718 5716 5712 5709 5705 5701 5697 5693 5687 5683 5679 5676 5673 5669 5666 5663 5661 5658 5656 5654 5651 5649
5718 5728 5728 5725 5727 5725 5723 5722 5718 5721 5724 5741 5743 5741 5740 5739 5737 5734 5733 5732 5730 5726 5722 5718 5715 5711 5707 5703 5699 5694 5689 5685 5682 5678 5674 5671 5668 5665 5662 5660 5657 5655 5652 5650
5699 5714 5720 5712 5727 5727 5728 5733 5729 5722 5731 5743 5740 5740 5741 5741 5740 5738 5737 5736 5733 5729 5725 5722 5718 5714 5709 5706 5701 5695 5691 5687 5683 5679 5675 5672 5669 5666 5663 5660 5658 5656 5654 5651
5694 5704 5695 5720 5747 5746 5740 5742 5743 5744 5745 5746 5746 5748 5749 5747 5743 5741 5740 5738 5735 5731 5728 5725 5721 5717 5713 5707 5701 5696 5691 5688 5684 5680 5677 5673 5670 5667 5664 5662 5659 5657 5655 5653
5686 5689 5700 5727 5749 5748 5739 5739 5751 5749 5750 5750 5750 5745 5743 5750 5749 5745 5743 5740 5737 5734 5730 5726 5722 5717 5712 5706 5701 5696 5692 5688 5685 5682 5678 5674 5671 5668 5666 5663 5661 5659 5657 5655
5685 5690 5692 5724 5752 5761 5750 5735 5756 5755 5751 5748 5742 5726 5732 5749 5749 5746 5744 5740 5737 5733 5729 5724 5721 5716 5710 5704 5699 5695 5693 5690 5687 5683 5679 5675 5672 5670 5667 5664 5662 5661 5659 5657
5686 5687 5702 5736 5754 5754 5723 5730 5759 5758 5755 5749 5743 5741 5745 5749 5747 5744 5742 5739 5735 5731 5726 5722 5719 5714 5708 5703 5699 5698 5695 5691 5687 5684 5680 5677 5674 5671 5668 5665 5662 5660 5659 5658
5681 5683 5700 5747 5749 5739 5741 5757 5760 5758 5757 5753 5750 5749 5747 5745 5742 5740 5737 5735 5732 5726 5722 5720 5716 5712 5705 5701 5700 5697 5693 5689 5686 5683 5680 5679 5673 5671 5668 5664 5661 5659 5657 5657
5705 5714 5739 5749 5752 5759 5758 5756 5758 5757 5756 5753 5748 5745 5743 5740 5738 5736 5734 5730 5727 5722 5717 5714 5712 5708 5702 5700 5698 5695 5690 5686 5684 5681 5678 5676 5672 5669 5666 5663 5660 5658 5656 5655
5713 5726 5740 5748 5754 5759 5759 5758 5759 5758 5755 5752 5746 5743 5739 5736 5732 5730 5728 5725 5722 5717 5712 5708 5706 5703 5700 5698 5695 5691 5686 5683 5680 5677 5675 5673 5670 5668 5664 5661 5659 5657 5655 5654
5712 5727 5736 5743 5748 5753 5756 5757 5755 5754 5752 5749 5744 5739 5735 5731 5728 5725 5723 5720 5716 5711 5706 5702 5700 5697 5695 5693 5691 5685 5681 5678 5675 5673 5670 5668 5667 5665 5663 5662 5659 5657 5656 5654
5709 5726 5725 5734 5747 5749 5748 5748 5749 5747 5745 5744 5742 5737 5732 5727 5724 5720 5717 5713 5708 5704 5699 5695 5692 5690 5688 5687 5684 5680 5675 5672 5669 5667 5665 5663 5661 5660 5661 5659 5658 5656 5654 5653
5728 5736 5734 5741 5745 5746 5746 5746 5746 5744 5741 5737 5736 5733 5727 5721 5717 5714 5710 5706 5701 5696 5692 5687 5684 5681 5680 5679 5676 5672 5668 5665 5662 5660 5658 5656 5655 5652 5651 5651 5651 5650 5648 5647
5731 5730 5729 5734 5738 5743 5743 5743 5740 5737 5735 5733 5728 5724 5720 5714 5710 5706 5702 5698 5694 5689 5683 5679 5675 5672 5670 5669 5667 5663 5660 5657 5654 5651 5649 5647 5645 5644 5642 5640 5638 5637 5637 5637
5727 5727 5728 5733 5735 5735 5735 5732 5728 5725 5723 5721 5719 5715 5711 5706 5700 5696 5692 5688 5684 5678 5673 5670 5666 5662 5661 5660 5657 5653 5650 5647 5644 5641 5639 5637 5635 5633 5631 5629 5627 5625 5625 5625
5720 5721 5721 5721 5723 5724 5723 5722 5720 5717 5715 5712 5708 5705 5701 5696 5690 5685 5681 5677 5672 5666 5662 5659 5654 5652 5650 5648 5645 5642 5639 5639 5635 5630 5627 5625 5622 5620 5618 5616 5614 5613 5611 5610
5703 5705 5706 5708 5711 5714 5716 5717 5716 5712 5707 5704 5699 5695 5689 5683 5677 5671 5667 5664 5660 5654 5651 5647 5643 5641 5639 5637 5633 5630 5627 5625 5624 5618 5615 5612 5609 5607 5604 5602 5600 5598 5597 5596
5700 5705 5706 5707 5708 5707 5707 5707 5705 5702 5699 5695 5689 5683 5678 5672 5666 5660 5654 5650 5646 5641 5637 5635 5632 5630 5627 5625 5621 5618 5615 5611 5608 5605 5602 5599 5596 5594 5592 5589 5587 5585 5583 5583
5690 5694 5698 5700 5702 5702 5699 5697 5695 5692 5688 5684 5678 5672 5666 5660 5654 5648 5642 5638 5633 5627 5623 5623 5622 5617 5614 5612 5610 5606 5602 5599 5595 5592 5588 5586 5583 5580 5578 5576 5574 5573 5571 5569
5676 5681 5685 5687 5689 5688 5686 5685 5682 5678 5675 5671 5665 5658 5651 5645 5640 5634 5628 5623 5619 5615 5612 5610 5607 5604 5601 5599 5597 5592 5589 5586 5582 5578 5575 5572 5570 5567 5565 5564 5562 5560 5558 5556
5656 5662 5666 5669 5670 5671 5671 5669 5667 5662 5659 5656 5651 5645 5637 5631 5626 5621 5615 5607 5604 5603 5601 5599 5594 5591 5589 5586 5584 5579 5576 5573 5569 5566 5563 5560 5557 5555 5553 5551 5549 5547 5545 5543
5633 5639 5644 5647 5648 5648 5649 5649 5648 5645 5641 5637 5634 5629 5622 5615 5610 5605 5602 5597 5593 5591 5587 5584 5581 5580 5577 5574 5570 5566 5563 5560 5557 5554 5551 5549 5546 5543 5541 5539 5536 5534 5532 5529
5608 5614 5619 5622 5624 5625 5625 5626 5627 5626 5623 5620 5616 5612 5607 5602 5597 5592 5585 5581 5580 5579 5574 5571 5570 5569 5566 5561 5557 5553 5550 5548 5545 5542 5540 5537 5535 5532 5529 5527 5524 5522 5519 5516
5587 5592 5596 5598 5601 5603 5602 5602 5603 5604 5602 5600 5598 5595 5591 5584 5579 5577 5575 5572 5569 5565 5561 5559 5558 5556 5553 5547 5543 5540 5538 5536 5533 5531 5528 5526 5523 5520 5517 5515 5512 5509 5506 5504
5569 5572 5576 5578 5580 5580 5580 5581 5581 5581 5580 5578 5576 5575 5574 5571 5567 5562 5559 5557 5555 5552 5547 5546 5546 5543 5538 5534 5531 5528 5526 5524 5522 5519 5517 5514 5511 5508 5505 5502 5499 5496 5493 5489
5552 5555 5559 5561 5563 5563 5563 5564 5562 5561 5561 5559 5557 5556 5555 5554 5552 5548 5545 5542 5540 5538 5534 5531 5530 5528 5525 5522 5520 5517 5515 5513 5511 5508 5506 5503 5500 5497 5493 5490 5487 5483 5479 5476
5536 5540 5542 5544 5545 5547 5548 5548 5547 5546 5546 5545 5542 5541 5540 5538 5536 5533 5531 5528 5526 5523 5521 5518 5516 5514 5512 5511 5508 5506 5504 5502 5499 5497 5494 5491 5488 5485 5481 5478 5474 5470 5467 5463